Theta_e
302 303 303 303 303 303 303 303 304 304 305 305 305 306 307 307 308 302 297 299 296 290 291 293 292 289 291 290 286 290 289 287 289 284 284 283 284 287 286 288 285 285 284 282 284 281 282 298 296 289 293 296 298 299
302 302 302 302 302 302 303 303 303 304 305 305 305 306 307 308 308 307 297 298 300 294 292 297 296 297 295 294 291 292 290 290 292 286 287 288 286 287 286 282 290 285 289 286 289 290 296 298 297 298 297 297 298 298
301 301 302 302 302 302 302 303 303 304 305 305 305 306 307 307 308 306 299 298 297 292 292 292 292 295 298 297 299 290 288 295 291 295 292 290 286 289 284 285 287 291 294 290 291 295 296 297 301 299 299 299 300 300
300 301 302 302 302 302 302 302 303 304 304 305 305 306 307 307 306 306 300 300 298 293 288 289 299 297 302 301 299 298 296 297 296 297 292 290 286 292 287 289 287 290 293 292 291 295 296 298 298 299 300 301 300 301
300 301 301 301 302 302 302 302 302 303 304 305 306 306 306 306 305 301 295 299 300 293 288 290 295 299 302 302 300 301 297 294 293 291 290 287 287 291 293 292 289 293 291 290 288 294 294 295 299 301 300 299 300 300
301 301 301 301 301 302 302 302 302 303 304 305 305 305 306 306 304 293 287 292 299 299 292 286 292 294 299 301 300 299 298 293 294 292 290 289 290 292 286 284 291 295 296 298 295 299 299 299 301 302 300 300 301 301
301 301 301 300 302 302 302 302 303 303 304 304 304 305 306 306 295 290 289 296 301 300 292 287 287 294 298 298 298 297 297 295 294 293 290 286 287 289 285 281 290 293 294 295 298 299 297 299 297 301 303 302 303 303
301 301 301 301 301 301 302 302 303 303 303 303 303 307 307 306 301 293 296 303 301 293 294 286 285 291 297 293 293 296 294 293 289 291 288 286 288 287 282 290 293 295 295 295 296 297 296 298 300 301 303 302 301 301
301 301 301 301 301 301 302 302 302 303 303 302 305 306 299 293 291 294 305 304 296 291 287 288 285 284 296 294 295 290 290 289 293 290 291 291 284 283 288 293 294 295 293 294 296 296 296 296 299 301 302 301 300 300
302 301 302 301 301 301 302 302 302 303 302 303 298 294 290 294 304 303 295 291 290 291 294 288 290 286 292 293 291 287 288 287 285 290 293 288 287 294 296 296 296 297 297 296 293 292 294 295 297 299 299 300 301 301
302 302 302 301 301 301 302 302 302 302 299 293 291 290 295 302 295 291 287 286 286 284 290 290 290 287 296 289 287 289 285 286 282 285 287 286 286 291 296 297 299 299 299 299 298 297 296 296 295 296 298 300 302 302
302 302 302 301 300 300 301 302 302 292 291 293 294 297 298 292 288 286 281 284 285 284 288 287 288 290 293 294 288 288 285 285 280 289 286 284 290 295 297 298 299 301 301 301 300 298 298 298 298 298 299 300 302 304
302 302 301 301 300 300 302 302 301 300 299 300 297 294 289 286 279 283 280 282 282 286 288 288 286 288 291 291 287 284 279 274 283 280 282 288 293 295 296 298 299 302 302 303 303 301 300 300 300 300 300 302 303 304
302 302 301 301 301 301 301 300 300 297 294 292 290 284 285 283 283 283 282 284 288 287 288 286 285 286 285 283 285 278 281 283 273 273 282 289 292 294 296 299 299 299 301 301 303 303 301 300 300 301 302 303 304 304
302 302 301 299 300 299 300 300 300 294 293 291 288 280 285 288 288 288 289 288 289 289 288 286 285 286 281 283 286 282 281 272 281 282 287 289 293 294 295 297 299 300 300 300 303 302 301 300 300 301 302 304 305 305
302 299 295 299 299 300 300 298 295 295 295 293 290 285 287 288 288 288 288 287 289 288 288 287 283 282 280 280 276 281 281 272 282 286 292 295 294 293 294 296 299 301 301 302 301 302 302 302 301 302 304 305 306 304
300 293 297 299 299 300 299 293 294 297 294 292 287 290 288 288 289 289 289 289 289 288 284 285 283 281 282 276 273 284 279 286 288 292 294 293 294 293 294 296 298 300 300 302 301 301 300 303 302 301 301 303 306 305
296 294 298 299 299 296 292 294 294 294 292 292 287 288 288 290 289 290 290 291 289 287 287 286 286 281 274 275 273 279 287 287 290 291 292 293 294 294 295 295 298 298 298 300 301 300 301 300 301 302 303 304 304 306
298 297 299 299 297 293 288 291 295 289 291 290 289 289 289 289 290 292 291 292 291 291 290 287 284 280 280 283 285 286 288 289 290 290 292 294 294 294 294 295 296 296 297 298 300 301 301 301 302 305 305 305 303 304
300 299 299 298 297 291 290 290 296 290 287 289 289 288 288 289 289 289 289 291 290 290 287 285 285 285 286 288 289 290 291 292 290 289 290 293 293 294 293 293 293 294 295 298 301 298 301 301 302 303 303 302 303 303
295 294 296 295 294 292 291 289 289 289 289 289 291 289 289 288 287 287 288 290 288 286 285 288 289 289 290 291 292 292 292 292 290 291 291 291 293 292 292 293 294 293 293 295 298 301 300 301 302 303 303 302 303 303
294 296 293 295 290 291 288 290 287 290 289 288 287 288 285 281 284 286 288 287 288 289 289 289 290 291 290 291 293 293 293 293 292 292 292 291 291 292 292 291 291 292 293 293 295 298 301 301 301 302 302 300 300 303
295 293 290 289 288 289 287 294 289 289 284 285 285 284 283 282 286 289 285 287 289 292 291 290 292 292 292 295 296 294 295 293 291 292 292 292 292 293 292 292 291 292 292 294 295 296 300 295 300 300 301 301 300 299
295 289 286 286 285 282 288 286 286 283 282 282 280 283 283 284 286 283 283 285 290 290 290 291 291 292 293 293 291 292 293 294 293 292 292 291 291 292 293 292 292 292 293 293 295 297 298 298 297 300 300 299 300 298
285 282 282 279 285 285 284 284 284 280 284 284 283 283 282 285 280 282 283 285 287 287 289 290 290 292 292 292 291 292 294 295 291 290 291 291 291 291 291 291 291 292 293 294 295 295 296 297 297 299 297 296 297 296
278 278 278 281 282 282 283 282 282 283 283 283 283 284 281 281 281 282 284 286 285 287 288 290 290 288 287 291 291 292 294 292 291 290 290 290 290 289 288 287 288 291 293 293 295 295 294 294 294 294 294 294 291 295
273 274 280 285 283 284 281 284 284 281 282 282 281 282 281 281 281 284 287 288 289 290 290 291 291 291 292 290 290 291 291 291 292 292 292 292 291 291 289 288 288 290 292 295 296 295 293 292 292 292 291 291 291 292
280 281 278 279 281 281 281 281 282 282 283 285 284 282 282 283 283 287 288 290 290 288 288 287 286 287 287 289 290 291 291 292 293 291 290 289 289 289 289 291 293 287 292 291 293 293 292 291 290 290 289 288 289 290
281 280 281 279 280 280 281 281 281 283 287 288 283 282 286 289 291 290 290 291 291 289 288 289 288 288 288 287 286 285 287 288 287 286 285 283 283 285 287 288 292 294 294 291 284 286 288 288 288 288 288 289 289 289
279 282 279 279 279 279 281 284 284 287 289 289 289 289 289 290 292 294 292 290 289 288 289 290 290 289 287 286 284 284 284 285 286 286 284 283 284 285 285 286 288 291 292 291 289 288 284 287 285 287 287 287 285 284
282 283 282 280 280 282 285 288 288 286 285 285 286 284 284 286 289 289 290 290 291 292 290 290 288 288 288 285 285 285 282 282 283 283 283 283 284 284 285 286 288 291 290 289 288 287 285 283 282 282 283 283 283 282
280 280 280 279 279 283 287 283 283 283 284 283 283 284 286 285 285 286 288 289 289 288 286 288 288 285 286 285 284 283 282 282 282 282 282 282 282 283 284 286 288 288 287 286 286 284 283 281 280 280 280 280 280 280
279 281 281 282 280 282 284 283 281 281 281 280 283 285 286 284 284 287 291 290 288 288 288 288 288 288 287 284 283 282 281 280 278 278 278 278 278 280 283 284 285 285 283 283 282 281 281 280 280 280 279 279 279 278
Wind_Speed
21 22 22 23 25 26 26 26 25 25 24 23 21 20 18 15 12 3 3 5 3 4 9 8 5 5 4 4 3 5 7 2 2 2 2 3 3 2 2 2 1 4 2 3 3 4 4 15 8 10 7 9 12 13
21 22 22 23 25 26 27 26 26 25 25 23 22 20 17 15 12 4 3 3 3 4 7 10 16 19 16 19 6 4 4 5 2 2 2 3 2 2 2 2 1 3 4 2 3 3 3 4 3 5 4 11 13 16
22 23 22 23 24 26 27 27 27 26 26 24 22 19 17 15 11 5 3 3 1 3 5 2 5 3 3 7 9 3 2 3 2 2 3 2 4 4 3 2 1 1 3 3 3 6 14 17 8 6 13 13 17 15
21 22 22 23 24 26 27 27 27 27 26 24 23 20 16 13 9 7 3 2 2 3 4 7 2 3 3 2 6 10 8 2 1 2 2 2 3 2 2 1 1 1 4 2 4 5 15 2 11 14 20 18 20 21
20 21 22 22 23 25 28 28 28 28 27 25 24 22 18 13 8 3 2 4 3 1 3 7 11 5 5 3 7 8 8 5 1 3 2 3 2 2 3 0 0 1 3 1 2 3 8 13 14 19 16 18 21 20
20 21 21 22 23 24 27 29 29 29 29 27 27 25 17 10 1 2 3 1 4 4 3 5 5 4 5 7 8 4 5 3 2 2 2 3 5 2 2 1 5 8 9 5 4 7 11 15 16 12 17 19 19 18
21 21 22 23 22 24 26 28 30 29 30 29 26 25 16 7 4 3 4 2 8 4 2 5 5 4 5 4 3 2 3 2 2 1 2 2 3 1 1 2 9 8 10 12 8 7 11 10 12 17 17 19 18 16
20 22 23 22 22 23 25 28 29 30 32 31 27 16 4 11 1 3 1 10 6 2 1 2 6 5 5 3 3 3 2 1 1 2 2 2 4 2 2 3 5 9 10 13 7 7 9 14 16 15 15 14 18 15
19 22 23 23 22 23 25 27 29 30 33 32 17 6 2 3 1 2 3 6 2 3 1 1 3 5 3 2 2 4 1 2 2 2 2 3 3 2 5 10 10 13 9 13 13 12 13 13 13 16 16 15 15 16
19 21 22 23 23 22 24 26 27 28 33 19 2 2 3 1 9 6 2 1 1 1 1 3 2 4 1 2 1 3 3 2 3 1 3 1 3 7 8 10 15 14 13 13 13 14 9 9 11 13 15 13 13 14
20 20 23 24 23 22 23 24 26 24 11 6 6 3 4 10 1 1 1 1 1 2 3 4 5 3 1 2 2 1 1 1 2 2 3 2 2 7 13 16 15 16 16 14 16 17 14 14 12 13 18 14 13 13
20 20 22 24 23 23 23 22 18 5 2 5 7 7 4 3 2 1 1 2 1 4 3 3 3 4 1 1 1 1 1 0 1 3 2 2 5 15 15 17 19 12 12 13 15 19 17 15 14 14 16 14 14 13
20 20 21 24 24 24 23 15 17 18 14 2 3 4 1 2 4 3 2 3 2 3 4 2 4 1 1 1 1 2 5 3 2 3 1 2 12 15 16 16 17 16 16 11 10 13 15 14 14 13 14 15 14 14
19 20 21 24 25 24 13 19 19 10 3 3 2 6 4 3 5 5 5 5 6 4 4 1 2 1 0 2 0 3 3 1 5 4 1 5 11 15 16 16 17 19 20 17 14 9 11 13 11 12 14 14 12 15
18 19 22 22 8 17 22 24 22 2 4 4 3 5 6 4 3 3 3 2 4 2 1 1 1 2 2 2 1 2 3 3 1 3 4 5 12 12 15 15 15 15 16 17 16 12 5 5 7 11 11 12 12 15
16 16 5 7 17 24 26 19 2 3 3 4 5 2 3 1 4 2 3 4 2 3 2 3 1 2 1 2 3 1 1 3 4 4 5 9 12 11 12 13 13 12 12 13 13 13 11 9 6 8 9 11 15 12
7 5 6 14 18 25 25 3 1 5 5 5 5 4 4 2 5 4 4 4 2 3 2 2 2 3 2 3 2 3 4 4 5 7 5 8 8 9 10 11 11 11 12 11 12 13 10 10 7 7 7 8 10 7
5 5 14 17 15 11 2 2 3 4 7 5 3 4 4 4 3 3 4 3 3 3 4 4 4 2 4 4 4 5 5 4 4 5 6 7 7 7 7 9 10 11 11 12 11 11 13 13 10 7 10 11 11 8
7 8 18 19 9 5 3 4 3 5 7 3 4 3 3 3 4 3 2 2 3 2 5 3 3 3 4 5 5 4 4 4 3 4 4 6 5 7 7 9 9 10 10 11 11 10 10 13 12 8 6 5 6 6
13 16 20 19 6 3 4 5 2 4 5 4 2 3 4 4 3 3 3 3 4 4 3 4 6 5 6 5 5 5 4 3 0 4 5 4 4 6 7 6 6 7 7 8 9 9 8 10 11 11 6 4 4 5
5 3 7 4 3 4 4 3 4 5 4 3 2 2 4 1 2 3 3 4 3 4 4 5 5 5 4 2 3 4 3 3 4 4 3 4 4 4 5 5 7 4 4 5 6 6 7 7 8 10 12 9 6 5
3 5 3 2 3 4 5 5 5 3 3 4 3 3 3 2 4 4 3 3 4 5 5 5 4 4 4 5 5 6 4 4 4 3 4 4 3 3 3 4 5 6 5 4 5 6 6 5 6 7 8 9 13 11
2 3 3 3 5 5 8 4 4 4 4 4 3 2 3 2 4 2 3 3 4 4 4 4 3 4 5 4 5 3 5 5 3 2 2 2 3 3 2 2 2 4 5 6 5 4 6 7 7 7 7 7 7 9
4 3 4 5 8 6 3 4 3 2 2 1 2 4 3 4 1 0 5 4 4 1 3 4 4 4 3 3 3 4 5 3 2 0 1 2 3 3 3 4 3 2 3 4 4 4 5 6 8 6 7 9 8 9
5 7 5 8 4 4 5 4 4 1 5 5 3 4 4 2 1 3 4 4 3 3 4 3 4 3 5 3 1 2 2 3 4 2 2 2 2 2 3 3 3 3 4 5 6 5 5 5 6 7 8 9 10 10
7 6 10 6 4 5 5 3 5 6 3 3 5 3 2 1 2 5 4 3 2 3 4 6 7 5 3 4 5 4 4 3 4 3 1 3 4 3 3 4 4 5 5 3 3 5 7 6 7 10 10 12 11 10
6 7 4 3 2 2 3 3 2 1 3 4 3 2 1 4 5 4 3 2 2 2 2 3 5 5 5 4 2 3 4 4 2 3 4 4 4 3 3 2 4 4 6 4 5 6 6 7 8 9 8 8 9 9
7 3 7 3 3 3 3 2 3 5 4 3 2 4 4 2 3 4 3 5 6 1 5 4 4 3 3 3 4 5 5 4 6 6 4 3 4 4 4 2 2 3 5 7 5 5 6 6 7 8 8 8 8 10
6 4 4 4 4 4 6 7 6 5 4 5 5 4 4 3 3 2 3 5 6 4 4 4 4 4 6 6 6 5 4 3 5 5 3 1 3 4 5 4 3 2 3 4 6 7 8 7 6 7 8 6 6 7
6 6 5 5 6 8 7 7 4 3 3 4 3 1 1 2 2 1 2 4 5 4 2 2 5 6 6 6 5 5 4 3 3 3 4 4 4 1 3 4 4 3 2 3 4 4 6 6 5 6 7 6 5 5
3 6 5 5 6 5 7 6 4 2 2 4 4 5 4 3 0 2 3 2 4 1 2 4 5 4 5 4 4 6 3 3 5 5 4 3 1 1 2 3 3 2 4 5 5 5 6 6 6 7 7 8 9 8
5 8 5 5 4 4 3 3 4 5 4 5 4 4 3 3 4 3 4 4 3 4 4 3 7 5 5 5 5 4 7 5 4 3 5 3 3 3 3 2 3 4 6 7 7 7 8 7 6 7 7 9 9 10
3 4 4 3 3 4 5 5 4 4 2 3 3 3 2 3 3 3 3 5 3 3 3 4 4 5 9 9 7 6 7 6 6 5 6 7 5 4 3 4 5 7 9 7 7 7 8 9 8 9 10 10 10 10
Wind_Direction
325 327 330 331 331 330 330 331 331 329 325 326 329 324 323 318 308 172 241 180 194 247 282 247 266 223 251 228 270 339 315 326 277 299 284 312 293 308 352 70 175 100 165 178 187 252 285 352 1 59 283 301 310 313
322 324 326 330 329 328 328 330 330 328 326 326 330 323 320 312 299 262 245 176 178 254 274 295 268 255 251 250 263 237 276 300 271 303 310 291 270 246 238 191 287 188 186 145 253 293 344 352 240 242 274 309 313 319
321 323 324 326 327 326 326 327 329 328 326 326 326 322 315 307 305 276 237 145 157 263 271 274 278 294 226 225 204 231 259 249 293 247 330 300 306 333 357 52 287 239 158 229 264 15 336 311 316 307 331 319 319 321
318 319 320 323 326 325 325 326 326 326 325 327 326 325 317 306 297 292 200 177 166 263 277 273 296 317 347 348 185 213 256 298 328 301 291 280 291 275 314 288 348 311 311 248 271 331 321 319 345 328 327 322 330 329
312 315 317 321 324 325 324 324 326 325 323 327 326 324 317 302 291 277 229 206 185 215 290 292 310 244 225 234 270 239 224 222 242 273 245 259 244 277 262 117 66 210 287 325 310 301 273 283 313 319 321 325 325 326
307 310 314 318 322 323 323 323 325 324 321 325 326 320 315 287 214 71 334 255 187 183 282 306 312 307 285 277 293 290 202 164 201 222 231 252 255 185 340 327 21 19 339 294 273 221 255 287 303 321 324 323 320 317
305 307 310 314 319 322 323 324 324 322 321 323 325 318 306 211 127 167 190 222 174 169 262 297 294 272 304 309 335 11 125 147 200 238 243 255 298 108 143 288 342 328 330 328 331 311 294 294 306 319 308 321 315 309
303 306 308 311 317 321 323 325 325 322 321 323 325 323 79 145 16 337 266 170 144 139 76 295 279 313 359 318 333 8 5 74 39 307 330 346 313 17 290 287 306 327 319 303 316 320 275 287 291 313 309 322 322 320
301 303 305 309 314 320 323 325 326 323 320 325 321 131 73 64 79 255 60 126 89 143 211 246 288 298 4 297 330 347 356 8 344 335 351 343 357 317 292 310 325 314 291 284 281 282 279 285 293 299 305 314 316 317
298 301 304 307 312 319 323 324 326 324 320 324 37 16 334 326 312 78 20 89 3 301 208 256 238 271 264 272 34 342 32 20 327 36 274 20 331 293 291 313 302 292 274 271 279 277 275 279 281 283 291 300 303 303
300 304 303 306 312 319 322 325 325 330 343 7 0 325 300 312 49 73 230 129 286 288 223 238 224 270 168 317 335 11 346 332 330 311 347 323 326 287 294 299 283 273 270 259 243 250 254 250 258 275 281 288 292 297
297 302 303 304 310 316 322 324 324 359 271 271 287 291 275 312 349 219 283 324 173 250 264 224 261 209 27 3 333 328 333 347 305 315 324 291 280 315 329 315 320 289 305 277 241 241 235 240 243 253 266 277 282 293
295 301 304 303 308 313 315 312 324 316 310 244 203 250 71 269 17 193 230 303 288 243 249 317 326 138 64 48 333 4 26 257 322 23 302 270 294 314 325 321 321 328 338 329 298 239 238 241 243 246 267 271 276 281
294 299 302 302 308 308 312 321 322 332 293 235 214 290 183 257 241 190 184 209 237 225 278 289 264 92 177 63 277 71 241 43 23 19 309 274 309 310 318 325 331 340 343 342 333 305 244 239 234 245 249 261 266 278
295 301 302 300 310 335 325 323 318 205 196 228 137 243 232 238 252 221 221 290 244 232 148 356 34 99 14 90 8 19 15 360 247 265 252 278 305 312 313 324 331 340 348 355 349 348 303 248 239 251 251 258 261 264
303 310 269 246 334 324 319 321 310 167 234 224 229 252 235 301 275 225 196 250 219 144 99 60 64 56 55 134 56 152 3 229 258 231 268 303 304 309 312 321 323 332 342 342 357 3 5 356 285 252 267 262 256 239
298 241 298 316 328 314 312 257 242 225 225 226 247 208 180 239 228 239 183 239 151 92 205 109 314 241 113 49 322 205 210 222 235 279 287 283 285 296 307 318 327 332 340 349 354 4 1 343 339 341 346 321 321 266
230 264 292 311 331 313 270 230 249 249 245 237 224 227 189 209 213 242 234 193 147 176 136 205 131 136 175 179 261 237 233 254 251 248 269 284 300 314 331 326 330 334 337 342 346 339 3 2 352 338 328 325 319 314
260 274 290 302 313 308 311 283 202 259 241 240 248 234 197 229 230 253 224 181 187 157 121 111 140 202 225 211 218 241 247 221 263 294 285 298 311 329 327 332 339 342 346 341 343 352 353 2 353 343 326 313 309 326
280 281 279 284 278 222 267 262 215 260 268 245 257 245 207 209 220 205 224 180 158 159 152 186 207 211 195 215 196 212 224 209 238 318 304 319 328 340 339 331 333 323 338 340 351 351 355 360 2 347 341 346 350 338
303 277 305 238 191 224 272 272 260 225 278 272 276 190 250 326 230 211 228 151 145 203 219 207 216 229 195 208 183 177 224 175 216 197 253 298 319 325 326 333 338 336 348 343 346 336 1 357 345 349 355 352 350 350
254 320 287 232 235 222 249 229 224 277 270 253 302 214 235 240 231 224 166 163 211 215 202 188 215 183 184 198 195 189 193 192 224 240 289 273 295 325 343 330 337 340 340 328 332 332 321 341 345 357 9 14 12 5
259 199 243 248 239 234 256 159 208 228 237 262 4 263 256 251 230 112 235 221 235 222 203 197 203 194 183 165 136 144 177 182 169 199 300 310 277 264 287 317 342 355 344 330 332 325 327 333 350 2 355 356 14 33
181 236 228 223 201 255 273 240 222 255 262 277 224 261 250 229 151 169 240 237 240 168 181 204 147 110 74 117 167 185 187 186 138 360 315 355 356 331 321 322 332 338 297 282 314 345 353 356 341 21 11 359 10 37
220 228 189 238 230 237 234 248 226 180 242 204 216 268 271 89 177 244 233 254 243 227 226 199 170 184 157 142 198 196 140 179 166 157 356 15 299 317 328 342 343 316 337 359 358 1 9 4 13 12 32 24 15 35
223 234 187 207 218 202 221 241 217 220 210 211 234 252 40 354 265 249 242 240 242 218 207 187 168 138 164 183 162 187 199 156 131 109 31 55 47 41 356 347 338 326 353 337 358 17 33 23 30 33 32 21 15 25
231 255 228 239 226 262 276 252 282 195 222 225 247 338 324 230 241 258 311 305 276 297 259 164 144 150 174 164 135 141 132 145 151 141 125 106 83 73 77 26 346 307 318 353 41 36 44 47 47 41 33 25 19 16
221 220 204 214 204 202 250 259 222 218 224 223 104 202 223 233 296 313 350 341 315 2 78 62 60 87 110 118 106 108 93 105 104 92 80 58 43 31 17 21 94 42 22 14 23 60 61 56 58 62 58 45 30 16
216 206 171 220 217 229 215 208 217 217 197 156 171 224 235 174 192 256 292 324 309 302 103 108 73 87 78 71 63 50 62 131 128 143 168 110 6 344 344 335 349 24 87 86 44 49 59 66 70 76 74 65 57 47
220 165 184 206 202 221 220 194 224 221 204 198 185 121 269 239 312 2 20 351 324 286 271 123 133 128 130 121 112 71 32 24 58 133 163 180 185 239 331 329 341 354 51 67 63 59 40 48 42 43 65 60 46 46
140 173 216 219 241 222 227 234 247 237 216 216 203 190 217 182 95 45 1 338 287 337 83 90 71 50 104 114 115 119 106 22 39 40 46 74 72 349 359 321 322 25 58 61 54 55 60 49 52 53 53 60 64 65
180 192 198 218 257 244 207 212 209 208 212 195 216 159 143 128 167 25 350 336 31 56 55 103 105 90 92 78 49 48 84 93 75 43 41 40 11 349 342 344 44 67 75 73 69 67 63 61 58 61 62 58 54 63
200 189 196 262 299 248 219 170 208 234 185 192 172 122 99 109 101 48 36 18 42 71 64 65 73 84 88 94 104 93 80 82 71 54 59 51 29 17 34 53 70 76 78 76 72 73 72 75 72 71 68 66 65 64